User: anonymous
Location: Unspecified
(0.0000°N, 0.0000°E)
Time: 18:50:13
(UTC+00:00)
Language:

A-11 Canister half - Orbit

View from above orbital plane
View from above orbital plane
View from above satellite
View from above satellite

Ground track
Ground track

The orbit data is extracted from the following two-line orbital elements,

1 00053U 60009E   14207.94768861 -.00000084  00000-0  00000+0 0  5444
2 00053 047.2771 056.4424 0097762 200.5490 304.0984 12.17141340406398
Epoch (UTC): 26 July 2014 22:44:40
Eccentricity: 0.0097762
inclination: 47.2771°
perigee height: 1527 km
apogee height: 1683 km
right ascension of ascending node: 56.4424°
argument of perigee: 200.5490°
revolutions per day: 12.17141340
mean anomaly at epoch: 304.0984°
orbit number at epoch: 40639

The dashed part of the orbit path shows where the satellite is in the earth's shadow,  

DLR